Crawfordville, GA

4:18 AM EDT on August 26, 2016 (GMT -0400)
Dublin

Weather History for KDBN - February, 2015

Change the Weather History Date:

Thursday, February 12, 2015

  Actual Average Record
Temperature  
Mean Temperature 46 °F -  
Max Temperature 60 °F 61 °F 83 °F (1965)
Min Temperature 32 °F 32 °F 14 °F (1973)
Degree Days  
Heating Degree Days 19    
Moisture  
Dew Point 29 °F    
Average Humidity 55    
Maximum Humidity 100    
Minimum Humidity 24    
Precipitation  
Precipitation 0.00 in - - ()
Sea Level Pressure  
Sea Level Pressure 30.06 in    
Wind  
Wind Speed 7 mph (NW)    
Max Wind Speed 20 mph    
Max Gust Speed 29 mph    
Visibility 10 miles    
Events      
Averages and records for this station are not official NWS values.
T = Trace of Precipitation, MM = Missing Value Source: NWS Daily Summary

Daily Weather History Graph

Daily Weather History Graph

Search for Another Location

Airport or City:

Trip Planner

Search our weather history database for the weather conditions in past years. The results will help you decide how hot, cold, wet, or windy it might be!

Date:

Astronomy

Feb. 12, 2015 Rise Set
Actual Time 7:19 AM EST 6:13 PM EST
Civil Twilight 6:53 AM EST 6:39 PM EST
Nautical Twilight 6:24 AM EST 7:08 PM EST
Astronomical Twilight 5:55 AM EST 7:37 PM EST
Moon 1:18 AM EST (2/12) 12:11 PM EST (2/12)
Length of Visible Light 11h 45m
Length of Day
10h 54m
Last Quarter, 44% of the Moon is Illuminated
Feb 12
Last Quarter
Feb 18
New
Feb 25
First Quarter
Mar 5
Full
Mar 13
Last Quarter

Hourly Weather History & Observations

Time (EST) Temp. Windchill Dew Point Humidity Pressure Visibility Wind Dir Wind Speed Gust Speed Precip Events Conditions
12:15 AM - - - N/A% 30.02 in 7.0 mi Calm Calm - N/A   Clear
12:35 AM - - - N/A% 30.02 in 7.0 mi Calm Calm - N/A   Clear
12:55 AM - - - N/A% 30.02 in 10.0 mi West 3.5 mph - N/A   Clear
1:15 AM - - - N/A% 30.02 in 10.0 mi Calm Calm - N/A   Clear
1:35 AM - - - N/A% 30.02 in 7.0 mi Calm Calm - N/A   Clear
1:55 AM - - - N/A% 30.01 in 7.0 mi Calm Calm - N/A   Clear
2:15 AM - - - N/A% 30.01 in 10.0 mi WNW 3.5 mph - N/A   Clear
2:35 AM 41.0 °F 39.0 °F 41.0 °F 100% 30.01 in 10.0 mi West 3.5 mph - N/A   Clear
2:55 AM 41.0 °F 39.0 °F 41.0 °F 100% 30.01 in 10.0 mi WNW 3.5 mph - N/A   Clear
3:15 AM 42.8 °F 40.1 °F 42.8 °F 100% 30.00 in 10.0 mi WNW 4.6 mph - N/A   Clear
3:35 AM 42.8 °F 39.3 °F 42.8 °F 100% 30.00 in 10.0 mi WNW 5.8 mph - N/A   Clear
3:55 AM 42.8 °F 39.3 °F 41.0 °F 93% 30.00 in 10.0 mi WNW 5.8 mph - N/A   Clear
4:15 AM 44.6 °F 41.4 °F 39.2 °F 81% 30.00 in 10.0 mi WNW 5.8 mph - N/A   Clear
4:35 AM 42.8 °F 39.3 °F 39.2 °F 87% 30.00 in 10.0 mi WNW 5.8 mph - N/A   Clear
4:55 AM 42.8 °F 40.1 °F 39.2 °F 87% 30.00 in 10.0 mi West 4.6 mph - N/A   Clear
5:15 AM 41.0 °F 38.0 °F 41.0 °F 100% 30.00 in 10.0 mi West 4.6 mph - N/A   Clear
5:35 AM 41.0 °F 39.0 °F 41.0 °F 100% 30.00 in 10.0 mi West 3.5 mph - N/A   Clear
5:55 AM 41.0 °F 38.0 °F 39.2 °F 93% 30.01 in 10.0 mi West 4.6 mph - N/A   Clear
6:15 AM 41.0 °F 38.0 °F 39.2 °F 93% 30.01 in 10.0 mi West 4.6 mph - N/A   Clear
6:35 AM 39.2 °F 37.0 °F 39.2 °F 100% 30.01 in 10.0 mi WNW 3.5 mph - N/A   Clear
6:55 AM 37.4 °F 34.9 °F 37.4 °F 100% 30.02 in 10.0 mi West 3.5 mph - N/A   Clear
7:15 AM 39.2 °F 35.0 °F 37.4 °F 93% 30.02 in 10.0 mi West 5.8 mph - N/A   Clear
7:35 AM 39.2 °F 35.9 °F 37.4 °F 93% 30.03 in 10.0 mi West 4.6 mph - N/A   Clear
7:55 AM 41.0 °F 36.4 °F 37.4 °F 87% 30.03 in 10.0 mi WNW 6.9 mph - N/A   Clear
8:15 AM 42.8 °F 38.6 °F 37.4 °F 81% 30.04 in 10.0 mi WNW 6.9 mph - N/A   Clear
8:35 AM 42.8 °F 38.6 °F 35.6 °F 76% 30.04 in 10.0 mi WNW 6.9 mph - N/A   Clear
8:55 AM 44.6 °F 39.7 °F 33.8 °F 66% 30.05 in 10.0 mi WNW 9.2 mph 16.1 mph N/A   Clear
9:15 AM 46.4 °F 41.5 °F 35.6 °F 66% 30.05 in 10.0 mi NW 10.4 mph - N/A   Clear
9:35 AM 48.2 °F - 33.8 °F 58% 30.04 in 10.0 mi NW 9.2 mph 18.4 mph N/A   Clear
9:55 AM 50.0 °F - 35.6 °F 58% 30.04 in 10.0 mi NW 8.1 mph 18.4 mph N/A   Clear
10:15 AM 51.8 °F - 35.6 °F 54% 30.04 in 10.0 mi NW 10.4 mph 17.3 mph N/A   Clear
10:35 AM 53.6 °F - 35.6 °F 51% 30.04 in 10.0 mi West 15.0 mph 19.6 mph N/A   Clear
10:55 AM 53.6 °F - 35.6 °F 51% 30.04 in 10.0 mi NW 11.5 mph 17.3 mph N/A   Clear
11:15 AM 55.4 °F - 35.6 °F 47% 30.04 in 10.0 mi West 16.1 mph 20.7 mph N/A   Clear
11:35 AM 55.4 °F - 33.8 °F 44% 30.03 in 10.0 mi WNW 16.1 mph 21.9 mph N/A   Clear
11:55 AM 57.2 °F - 33.8 °F 41% 30.02 in 10.0 mi NW 10.4 mph 19.6 mph N/A   Clear
12:15 PM 57.2 °F - 33.8 °F 41% 30.02 in 10.0 mi WNW 9.2 mph 18.4 mph N/A   Clear
12:35 PM 59.0 °F - 32.0 °F 36% 30.01 in 10.0 mi WNW 13.8 mph 23.0 mph N/A   Clear
12:55 PM 59.0 °F - 32.0 °F 36% 30.00 in 10.0 mi WNW 11.5 mph 24.2 mph N/A   Clear
1:15 PM 60.8 °F - 32.0 °F 34% 29.99 in 10.0 mi West 17.3 mph 23.0 mph N/A   Clear
1:35 PM 60.8 °F - 32.0 °F 34% 29.98 in 10.0 mi WNW 12.7 mph 25.3 mph N/A   Clear
1:55 PM 60.8 °F - 30.2 °F 31% 29.97 in 10.0 mi West 17.3 mph 23.0 mph N/A   Clear
2:15 PM 60.8 °F - 28.4 °F 29% 29.98 in 10.0 mi WNW 16.1 mph 25.3 mph N/A   Clear
2:35 PM 60.8 °F - 26.6 °F 27% 29.99 in 10.0 mi NW 18.4 mph 26.5 mph N/A   Clear
2:55 PM 60.8 °F - 26.6 °F 27% 29.99 in 10.0 mi NW 17.3 mph 27.6 mph N/A   Clear
3:15 PM 60.8 °F - 26.6 °F 27% 29.99 in 10.0 mi WNW 19.6 mph 26.5 mph N/A   Clear
3:35 PM 59.0 °F - 24.8 °F 27% 30.00 in 10.0 mi NW 17.3 mph 28.8 mph N/A   Clear
3:55 PM 59.0 °F - 26.6 °F 29% 30.01 in 10.0 mi NNW 13.8 mph 27.6 mph N/A   Clear
4:15 PM 59.0 °F - 24.8 °F 27% 30.01 in 10.0 mi NNW 19.6 mph 24.2 mph N/A   Clear
4:35 PM 57.2 °F - 23.0 °F 27% 30.02 in 10.0 mi NW 15.0 mph 24.2 mph N/A   Clear
4:55 PM 55.4 °F - 19.4 °F 25% 30.04 in 10.0 mi NW 19.6 mph 28.8 mph N/A   Clear
5:15 PM 53.6 °F - 19.4 °F 26% 30.05 in 10.0 mi NW 17.3 mph 25.3 mph N/A   Clear
5:35 PM 53.6 °F - 17.6 °F 24% 30.06 in 10.0 mi NW 12.7 mph 24.2 mph N/A   Clear
5:55 PM 51.8 °F - 21.2 °F 30% 30.07 in 10.0 mi NW 11.5 mph 19.6 mph N/A   Clear
6:15 PM 50.0 °F - 19.4 °F 30% 30.09 in 10.0 mi NNW 13.8 mph 24.2 mph N/A   Clear
6:35 PM 46.4 °F 41.1 °F 19.4 °F 34% 30.11 in 10.0 mi NNW 11.5 mph 19.6 mph N/A   Clear
6:55 PM 44.6 °F 37.8 °F 17.6 °F 34% 30.12 in 10.0 mi NW 15.0 mph 23.0 mph N/A   Clear
7:15 PM 44.6 °F 38.1 °F 19.4 °F 37% 30.14 in 10.0 mi NNW 13.8 mph 21.9 mph N/A   Clear
7:35 PM 42.8 °F 37.5 °F 19.4 °F 39% 30.15 in 10.0 mi NNW 9.2 mph 23.0 mph N/A   Clear
7:55 PM 41.0 °F 33.5 °F 19.4 °F 42% 30.16 in 10.0 mi NNW 13.8 mph 19.6 mph N/A   Clear
8:15 PM 39.2 °F 32.5 °F 17.6 °F 42% 30.17 in 10.0 mi NNW 10.4 mph 23.0 mph N/A   Clear
8:35 PM 37.4 °F 29.8 °F 17.6 °F 45% 30.18 in 10.0 mi NNW 11.5 mph 21.9 mph N/A   Clear
8:55 PM 37.4 °F 28.9 °F 14.0 °F 38% 30.20 in 10.0 mi NNW 13.8 mph 26.5 mph N/A   Clear
9:15 PM 35.6 °F 27.1 °F 15.8 °F 44% 30.21 in 10.0 mi NNW 12.7 mph 20.7 mph N/A   Clear
9:35 PM 35.6 °F 28.0 °F 15.8 °F 44% 30.21 in 10.0 mi North 10.4 mph 18.4 mph N/A   Clear
9:55 PM 35.6 °F 28.6 °F 14.0 °F 41% 30.22 in 10.0 mi NNW 9.2 mph 16.1 mph N/A   Clear
10:15 PM 33.8 °F 26.4 °F 14.0 °F 44% 30.23 in 10.0 mi NNW 9.2 mph - N/A   Clear
10:35 PM 33.8 °F 24.8 °F 14.0 °F 44% 30.23 in 10.0 mi North 12.7 mph 21.9 mph N/A   Clear
10:55 PM 33.8 °F 28.6 °F 14.0 °F 44% 30.24 in 10.0 mi North 5.8 mph - N/A   Clear
11:15 PM 32.0 °F 25.6 °F 14.0 °F 48% 30.24 in 10.0 mi NNW 6.9 mph - N/A   Clear
11:35 PM 32.0 °F 28.7 °F 14.0 °F 48% 30.24 in 10.0 mi NNW 3.5 mph - N/A   Clear
11:55 PM 32.0 °F 28.7 °F 15.8 °F 51% 30.24 in 10.0 mi NNW 3.5 mph - N/A   Clear